Theta_e
327 326 326 326 326 327 328 328 328 327 327 327 327 326 327 327 327 328 327 327 326 326 327 327 327 327 326 326 327 323 324 303 300 299 298 302 317 328 328 328 329 330 326 303 300 298 296 295 298 297 297 294 293 293 294 295 292 289 283 280 280 277 279 281 280 280 281 282 282 284 284 284 283 286 288 288 286 284 285 286 287 289 289 289 290 290 291 292
326 327 326 326 326 327 327 327 327 326 326 327 327 326 326 326 327 326 326 326 326 325 326 327 327 326 326 325 325 324 304 302 299 299 298 310 324 326 328 329 329 327 317 301 298 295 297 295 296 297 291 291 293 292 293 292 293 285 281 281 280 278 283 283 282 282 283 282 283 283 284 285 284 284 287 285 283 285 284 285 286 287 288 290 290 290 291 291
325 327 325 326 326 326 326 326 326 326 327 326 325 325 325 325 326 326 325 325 325 324 325 326 327 326 324 325 325 322 305 300 299 296 300 320 323 326 327 327 329 325 303 301 300 296 295 294 295 296 292 291 292 290 291 290 289 285 283 280 280 283 283 284 285 284 283 284 283 283 284 284 285 286 287 285 281 284 282 282 284 284 285 287 289 289 290 290
326 325 325 325 325 326 326 326 326 326 325 325 325 324 324 325 325 325 325 324 323 324 325 325 325 325 322 322 324 312 305 297 292 295 299 320 323 325 326 326 328 316 303 302 300 296 295 296 293 294 290 290 288 288 289 289 287 286 284 277 282 284 281 284 285 284 284 286 283 282 284 284 284 285 286 283 282 282 282 283 285 285 286 287 288 289 289 289
325 324 324 324 325 326 326 326 326 326 326 325 325 324 324 324 324 324 324 324 324 324 324 325 323 323 323 322 322 308 300 290 292 297 302 320 323 325 325 325 326 307 301 301 299 296 296 293 289 288 288 285 285 284 285 287 287 285 283 284 284 283 283 285 284 284 284 284 284 282 284 283 286 286 284 284 281 278 282 286 287 287 288 288 288 288 288 289
324 322 322 323 323 324 325 326 326 326 326 326 325 325 325 325 325 324 325 325 324 324 323 325 324 322 322 318 305 305 300 282 296 298 316 321 322 323 322 324 322 299 299 298 295 294 296 293 291 285 284 283 284 285 286 286 288 284 283 282 283 282 283 285 285 285 283 284 283 282 285 285 285 284 283 284 284 283 284 286 289 288 289 290 290 289 288 288
323 322 322 322 322 323 324 324 325 325 326 326 326 326 326 325 325 324 324 324 324 324 325 325 325 324 321 318 303 300 295 293 296 301 314 320 320 320 324 320 311 300 299 296 293 292 292 293 292 287 284 285 285 285 286 287 287 285 282 283 284 284 285 284 285 282 282 284 283 284 287 285 284 284 285 283 284 284 286 285 288 288 288 289 288 289 289 289
324 322 322 322 322 322 322 323 323 324 325 325 325 325 325 325 324 323 323 324 324 324 325 325 325 322 318 302 299 293 292 292 298 301 313 319 310 305 310 302 298 298 297 293 294 293 291 291 291 287 285 285 286 285 288 288 285 284 282 284 284 284 285 283 281 283 284 285 284 286 286 284 283 284 285 284 285 286 286 286 286 287 287 287 288 288 289 288
324 322 322 322 322 322 322 322 323 323 324 324 324 324 324 324 323 322 322 323 324 324 324 324 323 319 317 301 296 293 289 297 300 301 302 302 302 299 300 300 298 299 295 293 292 293 290 289 288 285 285 286 288 287 285 283 283 283 283 283 284 285 285 284 285 284 284 286 285 286 284 283 282 284 284 285 286 285 286 286 286 286 286 287 287 289 289 288
323 322 322 321 322 322 323 323 323 323 323 323 323 323 323 322 322 322 322 322 323 323 322 322 319 314 304 297 295 291 293 299 300 301 301 302 300 300 301 298 295 295 294 294 295 293 294 288 291 292 291 287 285 284 285 283 283 283 283 284 285 284 285 286 286 285 285 287 285 285 283 283 286 285 280 283 286 285 286 285 284 286 286 287 287 288 288 289
323 321 321 321 321 322 322 323 322 322 322 322 322 322 322 322 322 321 321 322 323 323 319 320 319 310 298 295 292 288 298 301 300 300 302 302 298 302 299 299 297 296 297 296 295 293 294 295 294 293 290 287 286 285 284 285 286 285 285 285 284 284 284 284 284 285 285 287 284 285 284 284 284 285 280 283 285 285 286 284 284 285 286 286 287 287 288 288
322 321 320 320 321 322 322 323 322 322 322 322 322 322 321 321 321 322 321 320 323 322 323 320 315 304 299 297 293 292 299 301 299 299 304 301 298 299 301 300 298 296 297 295 294 295 294 292 290 289 288 289 285 286 286 287 287 285 285 283 283 283 285 285 285 285 286 286 285 284 285 283 283 282 283 282 285 285 285 285 284 284 285 285 285 286 286 288
321 320 320 320 320 321 322 322 322 322 322 322 321 320 321 321 322 321 321 319 322 322 318 318 309 304 300 293 292 299 297 298 300 302 305 303 298 299 301 300 302 299 296 295 294 295 294 290 294 292 288 286 285 284 287 287 285 286 284 283 282 280 281 286 285 286 285 285 284 286 280 277 279 285 283 283 285 283 284 283 284 284 284 284 284 285 285 286
321 320 320 320 319 319 320 321 322 322 321 320 320 320 320 322 323 324 322 319 323 323 318 317 305 301 295 288 299 302 301 300 300 303 303 302 298 300 303 303 303 302 301 297 295 294 296 295 295 291 288 285 285 291 290 287 285 281 284 282 276 279 280 285 286 285 285 286 284 287 280 275 280 281 283 284 285 285 284 284 283 283 284 284 284 284 286 287
320 320 320 319 319 319 319 321 321 321 321 319 318 319 320 321 322 323 324 322 322 324 324 313 300 293 292 292 299 300 317 299 299 298 302 300 296 298 300 301 301 301 301 300 299 298 296 293 293 287 287 289 291 287 282 281 281 282 282 281 279 281 280 282 284 284 284 286 284 284 281 278 280 282 282 284 284 284 284 284 283 283 284 284 284 285 286 287
321 320 320 319 318 318 319 320 320 320 320 319 318 318 319 320 320 321 321 321 321 322 315 301 301 297 291 289 298 310 298 296 299 301 301 300 299 299 298 299 299 300 302 301 304 302 299 296 291 288 290 287 285 282 280 279 280 279 282 279 281 278 279 281 285 284 286 285 286 284 280 280 284 283 283 283 285 283 283 283 283 283 283 284 285 286 286 287
320 320 319 318 318 318 318 319 319 318 319 319 319 319 319 320 320 321 319 317 313 310 305 300 297 298 290 295 302 295 294 296 301 301 301 300 300 300 298 298 297 299 300 301 300 300 298 293 289 289 286 283 281 281 279 278 277 279 279 280 279 280 280 279 282 284 283 285 283 283 282 279 282 281 281 284 284 282 283 284 283 284 284 285 285 285 286 286
319 319 318 318 317 318 318 319 319 318 317 317 316 317 314 318 318 316 312 310 306 308 307 305 295 292 290 298 292 293 298 297 300 300 300 300 301 301 299 299 299 297 295 297 297 297 295 292 287 284 281 282 281 279 278 278 279 279 281 280 280 277 279 280 280 283 285 283 283 281 280 283 285 284 283 284 283 283 284 285 284 283 284 284 285 285 285 286
318 317 317 317 317 317 318 317 318 318 317 318 317 320 318 315 306 306 304 303 299 294 294 293 296 287 282 292 294 295 297 301 300 299 298 301 300 301 300 300 296 298 295 290 294 292 290 287 283 281 281 280 280 279 277 283 279 282 279 280 280 280 280 281 281 283 284 283 282 280 281 283 284 285 284 282 283 284 285 283 283 283 283 284 284 285 285 286
317 316 316 316 316 316 317 318 317 316 317 312 306 304 299 296 295 292 299 302 295 296 292 295 295 293 292 292 296 299 299 301 298 296 298 299 299 300 298 298 293 293 289 289 289 289 287 279 279 279 278 280 281 281 283 281 282 282 281 279 278 277 280 282 281 282 284 284 280 279 279 279 283 284 285 283 282 282 282 284 284 284 285 285 284 285 285 286
316 316 315 315 315 317 316 317 317 317 318 307 304 300 295 289 288 286 291 295 296 295 295 295 295 293 293 295 295 298 298 297 296 294 297 299 299 297 293 297 288 289 285 287 290 289 285 282 281 277 280 280 282 280 280 282 281 282 280 281 282 280 283 282 283 284 283 283 280 279 280 283 283 283 282 282 283 284 284 284 284 285 285 285 285 286 286 287
316 316 315 314 317 316 317 317 317 317 315 304 302 299 297 292 298 295 293 288 292 295 293 294 294 295 296 296 297 297 294 292 294 294 297 301 295 293 291 290 284 287 285 286 283 280 280 280 282 281 280 281 281 282 281 281 283 283 283 280 280 281 281 282 282 282 283 283 280 278 281 283 283 284 282 282 283 283 285 286 286 286 285 285 285 285 286 287
315 314 313 314 316 317 316 318 317 317 306 303 299 297 299 303 302 301 294 291 288 293 294 293 292 292 293 295 299 300 290 287 288 292 295 298 293 293 290 286 284 283 283 282 283 279 281 281 280 282 282 282 283 281 280 282 281 281 280 281 282 281 281 281 280 281 284 283 281 280 280 284 283 281 281 282 283 283 283 285 286 285 285 285 286 287 287 286
314 313 313 313 315 315 317 315 313 306 299 299 297 298 301 299 300 302 291 286 287 291 295 294 294 293 293 293 296 293 289 291 289 291 296 294 291 291 289 284 282 282 281 279 279 282 281 282 282 282 281 282 283 280 282 282 282 280 280 279 280 282 281 280 281 281 280 283 283 282 280 279 279 282 281 285 284 284 284 286 285 285 285 285 286 287 287 287
313 313 314 315 313 315 315 313 304 301 300 297 298 301 300 300 299 295 290 285 284 291 296 295 294 294 297 301 296 296 291 290 292 292 293 295 293 289 289 289 282 283 281 281 281 282 280 282 283 282 280 282 284 281 281 278 281 279 282 282 282 280 282 280 280 281 275 282 284 283 277 277 278 280 282 282 283 284 283 285 286 287 285 285 286 288 287 287
313 313 313 315 315 314 315 303 300 299 299 298 299 301 298 300 300 297 287 277 277 282 292 292 301 292 298 293 296 290 292 287 292 294 298 296 297 291 287 286 285 282 282 280 281 279 280 282 283 282 280 280 279 281 281 282 280 280 283 281 281 280 281 280 281 282 278 279 284 282 279 275 276 282 286 284 283 283 282 284 285 284 285 284 286 287 287 287
313 313 315 314 315 315 303 296 299 297 297 297 299 299 299 302 299 301 291 272 274 284 288 294 295 292 299 293 295 293 282 284 295 297 295 297 296 297 288 284 285 284 283 282 283 281 284 282 281 281 283 282 282 281 282 279 279 283 282 280 281 282 283 282 279 281 281 279 282 280 278 277 277 278 280 281 283 284 283 284 285 285 284 284 284 286 285 286
313 314 314 315 313 313 300 303 301 297 294 299 299 298 299 299 299 293 278 268 270 291 288 290 297 302 297 294 292 290 289 292 287 290 295 294 296 292 287 284 283 284 284 283 278 284 283 283 282 283 278 280 281 281 282 281 282 283 281 282 282 282 281 280 281 280 280 280 278 277 281 280 275 277 281 283 285 284 285 285 285 284 284 285 287 287 286 287
313 314 314 315 315 314 302 302 300 300 302 298 296 297 300 296 295 288 274 268 282 285 300 289 300 297 292 293 289 288 291 291 287 291 293 297 295 293 285 283 282 283 281 285 279 282 282 283 283 282 283 280 281 280 280 283 283 284 282 282 281 281 280 280 279 280 280 279 275 280 280 278 276 276 282 283 282 282 284 285 286 285 285 286 287 288 288 289
312 312 313 315 308 306 302 301 301 303 297 296 298 298 298 294 289 281 275 270 288 281 291 293 292 288 286 284 284 288 289 287 288 291 290 290 293 293 290 288 283 280 282 282 281 281 283 287 286 283 281 282 280 281 281 282 283 283 283 284 281 279 279 278 277 277 276 274 275 279 279 280 277 278 285 284 284 285 284 283 284 284 286 286 286 287 288 289
314 315 313 314 303 301 298 298 299 297 295 295 299 298 294 288 277 269 269 274 288 287 290 287 289 289 286 284 283 285 286 285 288 287 289 287 289 286 285 287 285 279 275 277 281 281 283 281 282 281 285 284 282 285 283 282 281 283 283 282 282 281 277 281 273 274 274 270 274 278 279 279 276 277 282 284 283 283 287 286 288 287 287 288 287 287 288 288
313 313 314 306 303 302 300 298 299 296 297 300 299 295 290 283 280 278 272 287 280 283 282 281 285 283 284 286 282 281 284 283 285 285 286 280 279 284 281 277 283 276 271 271 279 282 284 282 282 283 285 285 282 282 283 282 279 280 279 277 277 274 272 276 270 277 273 272 280 277 279 279 278 280 281 285 288 285 285 288 289 288 287 287 287 288 288 288
312 311 311 306 303 297 299 299 296 297 297 297 293 289 280 272 272 270 277 277 280 282 284 286 285 287 285 283 283 281 284 283 283 284 284 284 285 282 282 285 280 283 277 278 277 277 279 281 281 283 283 284 283 280 282 281 280 279 282 277 276 274 267 269 263 268 272 277 279 278 278 279 279 283 285 287 289 288 288 285 287 288 288 288 288 288 288 288
311 307 300 302 300 300 300 297 297 299 299 295 288 287 281 274 274 285 276 276 281 283 285 285 284 281 281 283 282 284 282 282 285 285 283 282 280 280 281 282 283 284 275 276 280 276 273 275 280 282 281 283 281 282 280 283 280 282 279 282 279 269 271 272 270 276 274 276 277 278 277 275 279 285 287 287 286 284 283 283 283 285 287 288 286 286 287 287
309 304 301 298 296 298 297 297 297 300 292 292 285 278 274 271 270 277 275 277 280 283 286 284 283 281 280 280 282 282 283 281 283 283 281 280 276 277 279 282 284 281 278 279 276 275 279 275 281 282 283 282 283 282 282 280 279 279 281 281 278 279 275 278 270 272 271 273 275 276 277 278 282 286 285 284 284 286 285 286 285 286 285 285 287 289 290 289
308 300 299 298 297 298 297 299 296 295 294 288 281 277 275 274 282 278 281 284 284 285 284 282 278 278 275 277 280 283 287 283 283 280 278 281 277 281 279 279 281 282 279 277 276 276 276 277 282 280 281 281 282 281 283 282 278 281 281 278 282 281 277 273 274 274 274 272 274 273 280 280 283 285 285 285 286 286 286 286 286 286 286 285 288 288 288 289
300 299 298 297 296 298 296 297 298 294 294 286 279 277 271 275 282 281 292 287 286 286 282 279 279 281 274 275 276 277 283 282 281 279 276 277 280 280 283 283 282 283 280 282 280 277 277 276 281 281 281 283 280 281 282 281 282 281 278 278 282 279 278 278 276 268 267 270 272 276 277 278 279 281 282 286 285 286 285 285 286 285 284 286 289 289 289 289
298 296 297 295 298 298 298 297 299 293 290 284 280 291 277 282 285 286 287 285 286 282 278 276 281 284 276 275 278 279 283 280 277 278 273 278 278 282 282 282 284 285 283 284 281 282 280 277 277 280 281 282 281 283 281 284 282 283 281 283 283 275 279 275 272 272 272 269 269 274 275 276 278 282 281 283 285 287 287 286 284 286 286 287 288 288 288 288
291 292 294 297 299 298 299 297 294 292 287 282 276 286 281 284 286 285 285 287 286 282 283 279 277 281 279 277 277 279 279 278 277 274 276 276 278 284 285 283 284 281 282 283 282 280 280 275 274 280 281 281 280 279 275 279 281 279 281 282 282 279 275 274 275 272 274 270 269 273 272 280 281 281 283 288 288 289 289 286 286 288 288 288 289 289 290 289
296 291 289 301 296 297 298 299 291 288 285 280 275 280 283 282 286 285 283 287 288 285 283 282 279 278 280 277 279 280 280 278 277 277 279 278 281 285 286 284 282 283 282 282 283 281 278 278 271 276 278 279 277 278 277 279 278 278 279 276 276 278 279 281 277 277 276 267 267 267 272 276 281 283 284 288 289 289 289 289 289 289 288 288 289 290 290 289
291 286 289 298 299 295 298 293 288 285 281 277 277 279 281 284 286 285 286 286 284 285 287 284 282 282 279 279 283 279 281 277 276 279 278 279 281 282 283 283 283 283 282 283 283 280 276 276 273 271 275 277 276 278 279 278 276 276 279 276 279 278 278 275 275 276 271 276 273 268 275 280 285 284 287 288 287 287 288 290 290 289 288 288 289 290 290 290
293 286 290 299 297 298 294 287 278 277 278 280 282 279 285 293 284 286 286 285 285 284 285 284 284 280 276 279 280 280 279 280 278 279 279 279 281 284 283 277 280 281 282 279 280 280 280 272 273 274 274 275 279 280 279 278 277 278 278 280 278 276 277 273 272 274 274 275 273 271 272 280 285 282 283 285 285 286 286 286 288 288 288 288 289 290 289 290
286 284 294 298 297 296 289 277 281 282 278 281 284 285 284 287 284 285 286 286 286 285 282 285 286 285 282 283 279 277 279 281 279 281 278 279 278 280 281 278 280 282 282 282 283 282 288 279 276 275 272 275 279 275 273 277 279 275 274 272 277 279 279 280 277 277 275 273 274 273 272 282 284 281 282 282 282 282 283 285 288 287 287 288 288 288 289 288
284 290 294 298 297 295 290 282 282 280 277 279 282 283 285 286 284 285 285 285 283 286 284 283 285 287 285 282 280 282 282 282 280 281 282 278 282 280 279 280 280 281 282 283 282 284 279 275 278 273 269 269 272 275 278 277 275 275 276 275 277 278 277 272 273 273 278 274 277 277 272 281 282 283 282 282 281 285 284 284 285 288 286 287 288 288 289 288
288 288 290 293 294 297 291 282 282 276 278 280 280 281 283 284 285 284 285 285 285 282 284 285 286 285 283 283 281 280 279 281 280 280 281 280 281 281 280 279 281 281 282 282 288 283 280 279 275 272 271 269 269 269 271 272 278 276 276 278 278 280 276 279 277 275 275 272 277 272 274 286 283 283 284 284 282 286 286 284 285 285 288 288 288 288 289 288
287 285 283 287 287 288 285 283 283 281 278 276 279 280 281 282 286 284 286 286 285 284 284 285 283 282 282 283 283 282 282 278 281 278 280 280 278 281 281 278 279 280 280 285 283 280 276 276 276 275 276 277 277 273 276 279 277 277 278 277 278 279 279 277 275 273 278 271 277 280 283 286 287 288 285 286 285 285 287 286 287 288 286 286 287 289 289 289
287 282 280 284 284 286 282 280 281 285 286 283 284 280 280 281 283 284 287 286 286 284 284 285 285 285 284 282 278 281 280 281 279 279 278 278 278 278 275 279 278 282 288 286 284 276 272 277 276 276 276 280 277 277 279 281 279 276 279 280 278 279 279 281 279 280 278 277 279 282 283 281 288 291 287 287 286 285 285 286 286 285 288 288 288 288 289 288
286 283 284 285 287 283 284 287 284 282 281 284 283 285 282 281 282 282 285 284 284 283 285 285 284 284 285 284 282 281 281 280 278 280 281 277 280 280 279 280 280 284 285 279 281 280 274 276 275 277 277 277 277 277 278 280 280 278 277 278 278 279 279 280 281 283 280 281 283 282 280 283 288 290 290 289 290 290 290 289 289 290 288 286 286 287 288 288
286 283 283 286 287 279 287 282 284 284 284 282 281 284 281 282 283 282 283 283 284 284 284 281 282 285 283 282 284 281 281 279 279 279 278 277 277 278 278 279 279 278 276 278 278 274 279 274 275 278 275 277 277 277 277 279 278 279 279 280 280 279 280 282 283 283 283 285 286 286 281 283 287 289 291 290 287 289 289 288 287 287 288 288 288 288 288 288
286 288 284 281 281 278 280 283 286 286 284 284 286 283 285 283 284 282 282 282 282 282 283 284 282 281 283 282 282 282 284 285 284 281 281 280 278 280 278 280 279 279 277 278 279 278 280 275 282 273 275 274 273 276 275 276 276 276 279 278 278 279 279 280 279 280 280 281 284 283 283 284 290 292 291 290 287 286 285 286 288 289 288 287 288 288 289 289
289 284 290 290 286 282 281 283 286 285 283 283 282 283 284 283 285 285 284 283 283 284 284 287 286 282 282 282 282 284 284 284 285 289 284 284 282 282 285 281 282 276 277 276 277 276 279 274 274 273 277 273 273 271 273 270 273 271 276 278 278 276 274 278 279 281 280 282 283 281 280 283 289 290 286 288 287 287 289 290 290 289 287 287 287 288 289 289
289 290 287 290 284 285 282 279 278 284 285 284 286 284 286 287 283 285 287 285 282 284 286 287 284 285 281 281 284 288 286 283 285 287 285 283 284 281 282 283 284 281 279 280 275 276 278 275 276 274 277 270 272 271 270 269 273 279 280 282 281 281 283 281 282 281 284 286 282 281 283 290 291 287 287 287 285 286 287 289 290 289 288 287 288 289 290 290
Wind_Speed
5 4 4 3 3 3 3 3 3 5 6 5 4 4 4 4 5 5 5 6 6 6 6 6 6 6 6 5 4 5 6 16 14 15 19 2 6 12 13 14 13 12 11 1 6 8 7 6 8 7 8 8 5 7 2 8 3 6 6 5 6 2 4 5 4 5 1 6 3 4 2 7 3 1 0 1 4 2 1 3 2 2 2 1 2 0 4 5
5 4 3 4 3 3 3 4 5 6 4 4 4 4 4 4 4 5 5 4 5 6 6 6 5 6 5 4 4 3 6 12 15 17 6 5 15 16 16 13 10 8 4 8 6 5 10 5 8 9 7 7 5 3 2 2 5 7 4 5 6 2 1 4 4 4 4 3 5 2 1 5 4 4 1 1 1 1 1 1 1 0 2 3 3 4 6 5
5 4 4 4 4 3 4 4 5 5 5 4 4 4 4 5 5 5 4 5 6 7 8 7 7 6 6 4 3 2 3 8 18 13 9 16 20 20 18 14 8 4 3 3 1 5 7 4 1 9 7 7 9 3 4 3 4 2 7 7 1 2 0 1 6 4 2 7 4 2 2 1 5 3 1 2 3 0 5 4 1 2 3 4 4 3 5 5
5 5 5 4 4 4 4 3 4 5 4 4 4 5 5 5 6 6 5 6 9 9 8 8 8 9 10 8 2 3 3 7 9 5 5 19 21 21 19 17 10 1 5 7 3 7 5 8 10 10 4 11 3 5 8 6 4 2 8 3 4 3 4 2 1 5 5 7 4 4 1 1 3 4 3 2 3 4 6 6 7 10 8 9 7 6 5 5
4 5 5 4 4 4 3 3 3 3 3 4 5 5 5 6 6 6 6 8 8 8 8 8 9 9 10 9 6 3 2 11 1 4 7 21 22 22 19 17 13 0 3 7 10 6 11 8 6 7 6 3 5 4 4 4 4 5 2 1 5 3 5 1 2 5 5 3 7 4 5 4 1 1 2 8 5 6 7 8 10 7 10 11 9 8 5 6
4 4 5 5 4 3 3 2 2 2 3 4 5 4 5 5 6 6 6 7 8 8 8 8 8 9 10 10 5 4 2 3 3 6 15 20 22 20 17 14 13 3 8 5 3 3 10 8 11 6 4 6 6 8 2 3 1 8 2 2 2 2 5 1 1 1 5 3 6 5 3 2 3 1 3 7 8 5 7 6 10 9 10 12 9 6 6 7
4 4 5 4 4 3 2 2 2 2 4 4 4 4 4 4 5 5 5 7 8 8 8 8 7 7 6 6 10 18 13 1 1 10 16 19 21 18 12 9 8 12 11 7 5 4 5 10 10 3 3 6 6 8 3 4 6 7 5 1 3 5 5 2 2 4 4 10 4 2 1 3 1 2 1 3 5 6 4 5 8 7 5 5 7 8 10 10
4 3 4 4 3 2 2 2 2 3 4 4 3 3 4 5 6 5 6 8 8 8 8 8 5 5 4 3 7 7 8 3 9 8 15 16 17 14 12 2 8 7 13 6 7 8 6 8 11 4 8 6 2 5 1 14 8 4 5 1 2 3 1 1 4 5 4 2 1 3 1 4 5 3 1 4 6 4 4 0 4 5 5 6 7 8 7 7
4 3 3 3 2 1 2 2 2 3 3 3 3 3 4 6 5 5 7 7 8 9 8 6 7 5 9 8 8 11 4 3 6 10 12 14 15 12 8 4 7 12 4 4 4 7 9 1 3 3 5 6 1 8 2 5 3 1 3 3 3 3 1 1 4 2 1 1 1 2 3 4 5 5 3 8 7 6 2 4 5 6 6 8 8 9 8 8
4 3 3 3 2 1 1 2 3 3 3 3 3 5 5 5 4 5 6 8 9 11 9 6 10 9 11 5 5 12 3 5 6 8 11 11 13 8 13 5 5 4 5 4 7 4 2 4 7 8 15 9 3 4 2 4 4 3 5 5 7 2 3 1 1 0 0 1 0 2 2 2 1 3 6 3 8 5 3 5 4 8 9 9 7 7 7 8
5 4 3 3 2 2 2 3 3 3 4 4 5 5 5 5 4 6 7 7 9 10 13 10 8 12 6 3 11 5 2 6 4 7 11 9 9 12 8 8 3 6 13 10 10 5 10 14 9 6 6 2 4 6 5 1 6 7 7 6 6 3 2 1 1 1 0 1 1 2 1 1 2 0 7 4 6 5 7 5 6 6 7 8 8 7 7 7
4 4 3 3 3 3 3 4 4 3 4 5 5 5 5 5 6 6 6 8 9 9 9 7 10 10 9 15 11 3 3 2 5 5 7 8 4 4 3 4 6 4 8 8 5 3 3 7 4 2 4 2 5 4 6 1 6 4 5 6 2 4 1 1 2 1 1 2 2 1 1 2 1 4 8 6 5 5 6 6 6 7 7 7 6 6 5 9
4 3 3 3 3 2 2 4 3 3 4 4 4 5 6 5 5 6 6 8 9 9 9 8 6 6 9 12 2 5 3 3 4 7 11 8 3 1 4 6 9 9 6 10 3 2 3 4 11 16 2 6 4 0 4 4 2 1 4 4 3 2 1 2 0 0 1 2 3 1 1 3 6 12 7 1 7 4 4 5 6 5 5 5 5 5 6 6
4 3 2 2 3 2 2 3 3 3 4 4 5 5 4 5 6 7 7 4 4 8 11 9 4 8 9 2 3 3 3 0 5 9 10 9 5 5 9 8 9 6 5 13 6 5 12 8 18 11 4 5 4 1 9 1 3 3 1 2 2 1 1 1 1 0 0 1 4 1 1 4 5 6 6 3 6 10 8 7 6 6 5 5 5 5 7 9
4 3 2 2 3 2 2 2 2 3 4 4 5 4 4 6 8 10 9 8 9 2 5 4 5 6 8 1 5 8 2 2 7 4 5 9 5 4 8 9 8 7 5 7 4 3 4 7 11 8 3 3 8 5 3 2 2 1 1 1 1 0 1 3 2 3 2 0 4 3 1 6 4 6 3 5 5 6 8 7 6 6 5 6 6 7 8 11
4 3 2 2 3 3 2 2 3 4 4 5 4 4 4 6 9 11 11 6 5 7 1 9 7 12 10 3 0 3 5 4 6 4 3 5 5 3 1 1 2 7 7 4 3 5 6 9 12 2 6 3 8 7 4 4 2 2 1 2 2 1 2 2 1 2 2 0 0 2 4 5 3 3 2 4 6 5 6 6 6 6 7 7 8 8 8 8
4 4 2 3 3 3 3 3 3 5 8 9 9 10 11 9 8 9 12 11 8 2 7 2 1 2 6 4 1 3 3 2 4 3 6 3 5 1 3 5 5 4 5 4 8 6 6 9 3 3 6 5 2 4 4 5 2 1 1 1 2 1 0 0 2 1 0 1 1 0 1 6 4 6 3 3 5 5 6 8 6 6 7 8 8 7 7 7
5 4 4 3 3 4 4 4 4 6 3 3 8 10 12 17 19 14 12 9 4 8 5 4 2 8 2 5 1 1 1 5 7 7 2 3 5 8 7 5 1 4 4 1 5 5 4 2 4 4 3 5 5 3 3 2 4 2 1 0 0 0 1 1 1 1 0 1 1 1 3 12 12 8 5 6 4 6 9 9 6 7 7 8 7 7 7 8
6 5 4 3 4 5 4 3 5 5 4 2 4 5 3 6 7 10 9 6 5 2 1 6 6 1 5 2 4 5 3 3 3 5 7 9 5 2 3 3 6 1 1 4 2 3 5 4 4 5 2 4 3 2 2 1 3 1 3 1 1 2 1 0 2 1 1 1 1 2 5 7 11 9 5 4 6 8 10 4 5 7 7 7 6 6 7 8
7 6 4 4 4 5 4 5 6 6 5 4 4 2 4 3 4 4 9 11 8 1 1 0 0 1 3 6 3 5 3 4 2 7 3 2 4 5 5 3 3 9 4 1 4 3 1 6 6 6 3 1 1 2 0 0 1 2 1 2 2 2 2 1 2 2 1 0 3 3 4 5 10 9 7 4 3 5 6 8 8 8 7 7 6 7 8 8
7 6 5 4 5 6 6 5 5 4 4 2 2 3 1 4 7 1 1 3 1 0 5 2 1 1 2 1 2 4 1 1 3 6 5 2 1 1 3 3 4 5 3 1 0 2 6 8 1 2 2 1 2 1 2 3 1 2 2 3 0 1 0 1 0 1 0 1 1 1 5 8 9 7 5 1 5 8 10 10 10 10 8 7 7 8 8 9
6 6 4 3 5 5 5 5 5 3 3 3 4 3 1 3 1 2 8 4 3 2 5 1 2 3 3 1 2 2 3 1 4 10 4 5 4 2 4 6 3 4 4 2 1 6 8 4 2 1 1 2 1 1 1 0 1 1 4 3 2 0 3 4 1 2 0 1 5 2 5 9 8 6 4 3 7 4 8 10 9 8 7 7 7 7 8 6
6 5 3 3 4 4 4 5 4 3 1 2 2 4 1 0 1 1 6 8 4 1 5 4 4 4 3 4 1 0 4 5 0 6 7 6 2 5 0 4 4 1 2 6 5 3 5 1 2 0 1 2 2 5 3 2 2 3 1 0 1 2 1 1 2 3 0 1 2 2 4 9 7 4 4 5 6 4 4 6 9 5 7 8 8 6 6 6
5 5 3 2 3 3 4 5 2 5 4 4 5 3 1 1 2 1 4 3 3 2 2 0 1 1 2 1 1 4 3 0 1 7 5 4 2 1 5 3 4 5 4 3 3 4 1 0 0 1 3 1 1 4 4 1 1 1 2 2 1 0 0 1 1 4 3 0 0 1 3 6 4 2 3 1 2 4 5 2 5 6 7 6 5 5 5 7
4 4 3 2 3 4 5 5 6 0 1 4 2 1 1 0 2 3 6 2 5 2 1 1 3 1 1 1 3 0 0 1 1 2 2 3 2 2 1 1 3 1 1 0 7 10 3 1 0 2 3 2 1 2 1 3 1 2 1 1 1 1 0 2 3 3 2 1 1 2 2 3 4 5 6 7 2 2 2 2 6 6 5 4 6 8 3 4
3 3 4 4 5 5 4 4 0 2 3 2 2 1 2 1 0 2 8 5 1 3 3 1 0 0 1 1 4 1 1 3 2 1 1 0 3 1 1 2 1 3 2 2 5 3 2 2 2 1 3 4 4 1 0 1 4 1 1 2 2 2 2 1 3 1 1 1 2 2 2 2 4 2 3 2 2 5 4 2 6 5 6 5 7 6 4 2
3 3 5 4 4 4 2 2 1 2 3 0 2 2 1 0 1 1 2 5 2 1 1 2 1 0 3 2 1 1 1 1 2 1 1 2 1 1 2 1 2 4 2 2 2 1 0 3 4 4 2 2 1 0 0 3 1 0 0 3 3 2 1 0 3 2 0 1 3 5 3 2 3 4 3 4 1 4 4 6 6 5 5 4 4 4 4 2
2 3 4 4 3 4 1 4 2 2 2 0 3 4 2 1 1 4 5 3 1 2 1 1 0 1 1 1 5 2 1 1 1 1 0 1 0 3 5 2 2 3 1 0 1 0 1 1 1 1 3 1 1 1 0 1 0 1 1 2 1 1 1 2 1 1 0 0 5 2 2 0 3 4 2 1 2 4 6 7 5 4 3 2 1 1 2 3
3 3 3 4 4 6 4 3 4 1 0 1 4 3 2 3 5 6 4 2 0 2 1 2 1 1 4 2 5 2 0 2 1 1 3 1 2 1 4 1 6 6 4 1 3 1 3 1 0 2 1 2 1 1 1 1 0 1 1 2 3 2 2 1 1 2 1 1 4 2 1 1 7 4 1 2 1 6 7 8 8 6 4 3 3 2 2 1
2 3 4 2 4 2 2 2 2 1 1 3 2 2 3 3 3 1 1 2 1 1 0 2 1 1 2 3 3 7 3 3 1 5 4 1 6 6 3 5 4 3 4 6 9 3 1 2 5 3 1 1 1 1 1 1 0 0 3 1 2 3 2 1 4 2 2 0 5 1 0 1 4 4 8 6 6 8 6 3 4 4 3 4 4 5 4 4
4 5 3 3 1 2 2 1 1 1 3 2 3 4 3 9 3 3 1 2 2 0 1 2 1 4 2 1 1 3 2 2 4 3 0 4 3 5 2 2 3 6 4 6 5 4 1 2 1 0 0 1 1 0 0 0 1 1 0 1 1 1 4 1 3 4 1 4 2 2 1 1 3 4 5 8 3 4 10 8 9 7 7 6 5 5 4 4
7 10 8 6 0 1 1 3 1 1 3 2 3 4 4 2 4 1 2 3 1 2 2 1 1 2 2 1 5 3 1 3 2 3 1 1 1 1 1 4 2 1 2 1 0 1 0 0 1 5 1 2 0 1 0 1 2 3 3 4 1 4 5 2 3 1 2 4 0 1 0 1 7 10 4 6 10 6 7 9 11 10 8 7 5 5 4 4
9 9 12 7 2 3 1 0 1 3 2 2 5 4 3 5 2 2 1 1 0 1 1 2 1 1 0 2 1 2 2 2 2 1 2 1 1 1 1 0 2 1 1 1 1 2 2 0 2 3 2 0 1 1 1 0 1 2 1 2 2 1 2 1 4 1 4 4 2 1 1 3 5 9 9 9 11 11 9 8 7 10 10 9 7 5 5 5
4 4 6 2 5 2 0 1 1 2 1 3 3 5 7 2 1 4 2 1 1 1 2 1 1 3 4 2 0 0 1 1 1 1 1 0 3 1 1 1 2 3 4 1 0 2 1 4 2 1 1 1 0 0 1 0 1 1 1 1 2 4 2 1 2 2 3 4 2 2 1 5 1 2 1 8 5 3 3 4 4 5 6 7 6 5 5 5
11 10 6 1 2 3 2 1 3 2 2 4 9 6 4 4 2 4 2 1 2 1 1 1 2 2 1 2 2 1 2 0 1 0 3 1 2 1 2 2 2 2 1 3 2 2 2 5 1 1 1 0 1 1 1 1 1 1 1 3 3 2 5 2 2 2 1 2 3 1 5 4 4 2 4 2 3 1 1 2 3 4 4 4 4 5 6 6
7 1 2 2 2 2 2 1 2 2 5 6 4 1 3 4 0 2 1 4 2 4 3 3 4 3 0 1 1 2 3 0 1 1 0 0 2 2 1 1 4 5 4 3 3 2 1 2 1 6 2 0 0 0 0 0 1 1 1 1 1 1 4 4 1 0 0 2 6 1 7 6 8 5 1 2 1 3 0 3 3 5 5 4 6 6 6 6
3 1 2 2 1 2 2 1 2 4 8 6 5 2 2 1 1 3 1 3 3 9 3 7 3 5 3 3 1 1 1 2 1 2 2 0 2 4 1 1 3 0 1 2 2 3 2 3 0 1 0 0 1 1 0 1 1 1 0 2 1 1 1 1 1 2 3 2 6 1 4 6 3 5 2 1 2 7 6 6 7 5 5 6 8 7 8 8
3 2 1 1 1 1 1 1 2 6 6 4 2 3 1 1 1 1 0 2 2 1 5 2 0 4 3 3 2 2 0 2 2 1 1 1 1 2 1 2 1 1 0 1 1 2 3 3 1 1 1 5 2 0 1 0 0 0 1 0 0 0 0 2 3 1 0 2 4 5 2 5 6 8 0 6 8 11 11 8 5 8 8 10 8 7 6 5
3 4 1 1 1 2 0 2 4 5 4 2 3 1 2 1 0 1 4 3 1 4 3 3 2 0 4 3 1 1 2 3 1 2 1 1 1 1 1 2 0 0 0 0 0 1 1 1 2 1 1 1 1 1 3 1 1 1 0 0 1 1 1 2 3 2 3 3 3 6 3 5 7 6 11 11 15 15 12 8 12 13 12 11 9 8 9 8
3 2 0 1 3 2 1 1 3 5 5 5 4 2 1 1 1 2 1 1 1 1 2 3 1 3 0 1 4 4 1 2 4 2 1 1 1 1 1 4 3 0 1 1 0 1 1 1 3 1 3 1 2 3 7 8 6 0 1 2 1 1 2 1 1 2 2 3 3 2 6 7 7 7 7 11 12 15 14 15 14 12 11 10 9 10 9 9
2 3 1 1 2 2 1 4 4 3 4 1 1 3 0 1 1 0 1 1 0 2 1 3 6 2 6 3 2 2 2 2 1 2 3 1 5 1 0 1 1 3 0 2 0 1 2 0 4 1 1 2 5 1 1 2 2 4 8 7 8 6 2 1 7 1 1 2 4 3 9 9 11 3 8 7 5 5 9 13 13 10 10 10 9 8 9 9
4 2 2 1 3 1 4 5 1 0 5 5 4 3 1 2 2 0 0 0 1 1 2 4 1 3 2 1 3 4 4 3 2 0 2 4 1 0 1 2 2 0 3 3 3 2 2 3 3 2 6 2 3 0 1 1 2 1 3 2 3 2 5 3 2 4 1 2 3 2 1 12 6 3 4 5 5 6 7 7 9 8 9 9 9 9 8 9
3 2 2 2 2 3 7 3 2 2 1 1 3 1 1 1 2 2 2 1 0 1 2 1 3 2 3 2 1 2 5 2 7 5 3 2 2 1 3 4 2 1 1 1 1 1 4 1 0 5 4 4 2 1 0 1 0 1 1 0 2 3 4 5 3 4 5 0 1 1 2 11 7 1 4 5 6 8 5 8 11 7 6 7 8 8 9 7
2 3 1 1 1 2 5 6 5 4 0 1 3 0 1 1 1 2 1 1 2 1 2 1 2 0 1 1 2 3 5 2 3 3 2 2 0 2 1 2 1 2 1 2 4 1 1 3 3 2 4 4 2 2 1 0 1 2 2 4 3 1 1 1 3 1 1 7 7 7 7 10 3 3 4 2 3 2 4 5 6 8 6 7 8 8 7 7
4 1 2 2 6 3 5 4 6 5 2 4 2 4 1 1 1 1 1 2 0 1 2 1 1 2 2 1 2 1 1 0 1 1 1 2 2 0 2 1 2 2 2 3 2 1 1 1 5 3 4 2 2 1 2 2 7 3 2 1 3 6 3 2 3 0 4 3 5 3 7 13 4 5 4 4 4 4 2 4 4 5 6 9 7 7 8 8
2 5 2 2 6 4 4 1 5 7 6 3 2 1 1 1 0 1 3 0 0 0 1 2 1 2 2 1 1 0 2 1 1 1 2 1 2 1 3 2 2 1 2 4 0 1 1 0 2 6 6 8 8 3 2 2 2 2 2 4 4 3 1 2 5 3 9 3 6 11 8 12 15 11 6 5 4 6 6 4 6 7 7 5 5 8 10 10
1 3 4 4 4 2 1 2 3 4 6 5 4 3 3 1 1 1 2 0 0 1 1 1 2 3 1 2 3 1 1 0 1 1 4 3 1 1 3 1 2 2 2 1 2 2 1 1 5 4 7 7 5 6 3 4 2 3 2 4 5 6 7 7 8 9 6 6 12 7 6 5 20 19 7 8 7 6 6 6 6 5 8 10 10 7 6 6
4 4 4 4 7 6 5 7 6 2 1 4 1 3 6 4 1 3 1 0 1 1 2 1 1 3 8 8 6 3 2 1 1 3 1 0 1 0 1 1 1 3 1 0 0 1 3 3 2 3 5 4 5 4 0 1 4 3 5 4 6 9 7 11 11 11 8 8 16 3 7 7 17 16 11 9 10 9 11 13 13 8 3 3 4 9 11 11
2 1 1 1 3 2 5 3 7 6 5 5 1 3 5 6 7 4 4 1 1 1 3 3 5 10 8 3 4 3 5 3 5 3 3 2 3 2 0 1 1 2 1 0 0 1 2 4 2 1 3 4 3 1 1 5 3 2 7 9 6 9 14 16 16 11 13 15 15 11 5 14 20 20 16 11 5 7 6 4 1 4 9 11 10 11 13 12
3 4 1 3 4 4 2 5 6 7 5 3 4 5 7 7 7 2 1 4 3 3 0 2 6 5 7 7 4 6 10 5 2 4 4 5 0 2 3 5 4 1 0 2 1 1 3 5 4 1 1 5 3 2 0 0 1 6 9 5 5 6 7 10 5 6 6 13 17 16 16 21 23 18 13 6 6 6 5 7 11 10 9 10 12 13 13 14
1 1 6 8 3 0 2 3 6 7 4 1 4 3 3 6 8 8 4 4 4 7 6 13 9 4 1 5 4 7 6 6 3 1 11 9 3 8 5 3 8 6 1 2 1 0 1 3 2 1 1 5 2 2 2 3 2 6 12 11 7 7 9 8 10 11 8 15 12 6 10 17 24 11 4 9 7 9 14 14 10 10 10 9 12 14 14 14
2 1 4 7 4 1 4 1 2 6 7 6 6 5 5 10 4 6 3 3 3 4 10 8 5 8 1 4 11 15 6 6 3 2 7 2 3 3 1 4 10 10 8 5 1 5 5 4 3 1 1 6 3 0 4 5 5 9 13 15 20 16 11 1 5 2 15 14 7 9 15 19 17 3 6 9 7 9 9 10 10 10 9 11 14 15 16 15
Wind_Direction
34 34 39 44 68 78 94 100 106 98 90 80 65 49 50 47 51 39 31 29 24 7 354 6 24 29 39 22 341 354 330 77 51 40 49 176 285 300 307 307 298 295 308 339 40 58 31 22 35 358 46 51 332 47 325 47 13 56 55 102 57 161 114 199 162 190 210 121 183 160 147 114 124 310 307 38 24 81 354 92 305 360 12 273 278 88 139 138
44 26 41 51 65 81 95 103 98 90 78 62 62 53 50 40 38 35 25 36 34 359 350 4 18 31 33 21 352 314 70 66 56 48 84 313 329 332 328 322 312 302 290 45 61 79 75 37 51 48 36 50 338 41 21 2 49 76 99 71 126 204 202 147 183 193 118 174 168 170 138 139 193 139 247 104 263 135 98 286 349 17 324 17 63 103 121 136
50 34 52 48 61 79 83 90 86 75 70 70 67 53 38 27 25 30 18 35 14 356 353 354 11 7 13 7 271 242 71 43 40 14 328 341 339 333 330 326 331 347 49 121 38 112 107 130 55 79 10 84 11 39 35 343 65 5 110 86 322 222 282 98 141 180 144 136 127 105 183 169 185 134 211 199 200 25 193 193 304 213 222 201 185 153 156 152
35 48 54 56 66 73 74 72 76 83 85 72 57 44 36 25 24 30 19 359 5 360 349 355 359 3 354 351 223 151 66 56 41 309 288 337 334 330 328 327 340 69 90 60 99 88 114 84 59 69 67 66 336 38 44 330 81 309 66 135 163 167 96 327 145 140 129 129 149 140 98 154 211 178 162 183 123 260 254 232 173 204 196 197 199 192 178 175
27 53 58 57 67 72 72 74 78 92 89 69 51 41 38 32 34 29 1 353 358 356 350 345 354 1 1 14 119 97 84 59 276 332 312 332 331 327 326 329 330 88 111 129 77 55 70 69 70 44 65 67 22 13 24 349 77 84 85 128 124 128 70 266 107 107 121 104 115 128 121 214 109 50 173 150 171 226 214 227 223 209 186 178 190 204 189 186
31 55 61 56 52 57 53 52 71 81 74 63 52 43 36 31 34 19 353 349 357 353 348 345 352 359 6 32 75 62 82 113 315 317 326 327 326 321 324 325 331 90 106 64 90 34 61 12 59 28 29 59 354 81 315 37 354 94 6 44 40 144 123 271 45 101 122 104 120 145 199 104 166 231 203 178 198 238 219 204 206 208 187 190 174 166 189 195
36 51 55 53 41 43 38 30 36 59 69 62 53 39 38 39 38 28 4 6 7 358 351 336 353 2 3 46 58 71 84 152 341 292 322 326 321 318 309 330 329 53 67 70 31 64 75 83 71 41 85 82 34 73 17 56 38 80 133 119 46 78 78 313 107 101 97 117 166 200 73 167 180 243 188 190 242 229 263 226 207 191 187 148 159 186 190 195
40 52 54 48 39 34 43 36 48 56 65 66 53 46 48 47 48 40 25 18 11 0 356 340 8 20 48 45 50 35 52 327 304 300 326 325 321 317 319 307 31 61 56 83 120 100 100 73 110 153 48 95 198 94 210 71 38 78 90 172 163 61 82 47 95 76 91 89 161 111 143 246 181 207 128 244 232 237 264 172 152 146 151 171 176 190 201 205
38 44 55 44 34 16 57 70 75 79 77 76 67 60 57 58 51 43 35 24 17 13 358 24 64 77 87 84 109 76 352 272 286 305 330 330 321 320 2 28 1 81 120 50 48 137 91 227 83 161 165 101 62 105 331 84 16 100 158 117 85 97 78 12 67 51 95 157 79 96 251 287 246 281 244 226 217 216 218 113 138 140 156 181 195 195 195 206
37 33 47 44 24 26 78 95 94 102 98 76 60 55 56 52 46 49 46 35 27 27 26 74 89 74 50 73 51 69 269 278 304 335 328 328 323 344 32 31 32 67 62 341 51 47 86 194 126 108 111 75 87 17 309 72 167 116 108 97 110 132 87 354 128 134 134 147 222 156 270 273 298 70 284 255 213 183 169 145 162 155 181 196 199 206 208 202
36 23 31 41 31 42 77 92 93 84 74 58 48 46 43 27 19 38 50 41 41 44 52 52 107 63 51 56 90 91 242 10 348 337 330 333 328 39 13 356 353 79 95 50 56 62 106 114 121 131 45 151 101 6 63 144 115 96 121 77 35 10 27 10 42 295 5 271 155 141 237 301 298 102 232 228 208 185 165 177 174 183 195 201 210 209 215 215
39 22 25 37 39 47 82 92 89 86 66 53 41 33 26 7 9 16 27 41 43 53 53 54 47 107 83 67 63 106 277 278 327 331 324 347 1 53 39 38 53 103 99 96 44 6 133 135 88 69 158 139 82 124 52 159 81 140 90 78 356 12 35 283 177 238 127 268 146 156 345 290 252 235 239 239 163 179 178 194 199 202 209 211 214 219 220 220
48 27 19 29 46 66 94 100 97 83 73 63 47 30 9 359 1 19 24 40 26 59 69 53 56 57 91 48 299 248 307 326 355 336 353 357 286 132 97 56 58 62 88 100 62 1 124 127 108 78 63 87 138 73 171 86 110 123 35 117 42 5 348 265 96 14 114 256 111 84 299 270 251 237 263 231 157 149 173 212 221 227 230 235 233 225 235 242
64 46 27 36 66 73 104 108 109 111 93 64 45 26 3 30 37 33 32 64 25 72 75 62 60 63 78 141 286 244 287 38 23 15 355 326 49 7 25 18 47 51 34 90 90 68 70 64 85 113 104 105 123 188 83 16 31 102 198 60 139 72 260 269 188 235 177 155 116 115 212 288 273 281 248 209 167 161 197 215 221 229 239 244 245 244 241 244
83 69 45 57 71 69 68 109 131 98 79 71 62 42 35 51 50 47 36 40 10 85 97 57 48 73 59 275 275 299 78 68 27 335 335 5 348 20 7 5 22 26 64 71 99 46 80 65 66 44 61 346 100 79 38 44 6 79 57 295 333 115 278 291 302 169 187 331 107 94 261 236 260 263 265 183 179 176 202 218 226 228 235 237 240 237 241 241
91 82 55 61 60 56 54 59 69 76 67 48 37 54 66 57 60 58 48 49 5 63 57 58 360 98 99 55 278 19 39 42 330 314 310 32 9 88 272 327 339 21 34 17 57 63 37 70 68 121 113 28 58 100 79 51 353 357 69 282 263 80 235 346 235 207 195 161 19 167 238 323 315 284 290 184 177 195 213 234 236 236 237 240 239 235 239 256
98 91 78 68 57 56 59 61 75 81 79 79 84 79 69 65 47 65 52 39 8 18 72 127 172 84 75 246 317 33 305 285 300 351 336 31 38 338 50 30 25 349 11 59 30 58 360 62 293 46 29 104 156 98 71 27 350 322 42 226 212 179 207 262 299 230 56 119 258 14 204 240 250 285 311 238 189 193 220 238 241 237 235 237 240 245 248 249
102 100 89 74 75 77 70 78 87 81 72 111 95 77 74 64 55 32 2 10 344 71 83 88 118 57 13 14 100 296 341 289 345 301 280 323 60 16 64 55 350 52 41 30 7 56 345 60 24 164 33 18 28 47 98 201 185 207 241 36 299 335 225 216 136 242 68 20 202 325 248 271 272 282 270 230 201 194 223 225 234 240 243 245 244 247 250 251
108 104 94 97 93 91 78 61 66 63 71 160 316 299 349 17 58 65 38 342 34 0 57 335 17 108 198 188 311 317 297 250 291 17 335 6 336 63 48 83 57 61 7 60 317 63 350 68 31 37 40 1 22 95 156 207 136 151 169 194 167 157 227 205 249 274 145 319 282 234 243 286 298 295 286 268 197 200 229 251 263 255 252 256 254 254 251 246
111 106 110 109 102 79 46 25 29 30 344 356 7 32 17 31 10 350 351 36 59 98 137 119 276 64 53 25 2 277 266 345 120 354 339 335 10 2 35 51 4 56 69 71 317 43 108 81 97 142 183 199 245 175 176 202 127 35 116 94 194 173 283 279 279 255 82 19 251 230 266 269 277 272 290 277 181 215 248 248 246 251 251 253 254 251 251 249
112 111 114 95 52 29 22 9 20 10 67 101 78 62 187 163 91 341 356 73 225 107 69 44 76 130 101 276 309 4 149 324 98 6 9 253 94 70 327 9 20 45 2 281 170 303 68 72 47 216 212 198 255 258 6 7 98 198 141 133 154 192 214 234 187 1 326 116 289 338 316 285 258 283 282 320 149 215 219 231 247 250 245 250 252 261 255 250
120 120 119 82 43 25 7 6 8 29 87 93 70 117 142 196 195 184 123 60 8 22 50 319 353 44 330 155 278 141 72 69 10 354 311 34 329 104 315 87 85 118 341 337 26 21 37 114 149 241 222 223 279 33 124 157 300 169 200 190 103 278 249 283 277 334 307 82 266 349 350 282 284 282 290 171 192 234 216 213 225 223 248 250 252 256 267 286
123 132 108 51 30 17 349 340 20 71 39 43 74 95 121 203 339 265 99 128 74 325 42 19 17 11 350 302 277 137 58 43 332 339 344 7 8 60 43 62 37 29 19 21 125 98 62 288 248 354 59 35 13 31 104 97 72 71 53 49 225 266 47 272 290 353 336 175 282 7 333 290 305 296 287 247 201 253 240 227 242 221 233 238 238 240 257 271
126 120 105 28 2 345 339 335 21 49 23 122 101 123 156 103 71 96 59 100 129 344 34 267 123 128 5 20 301 71 98 259 74 326 337 44 79 209 75 115 80 49 347 332 133 115 140 203 272 50 49 69 47 13 101 143 8 344 109 127 158 343 3 152 252 318 300 299 49 329 346 322 339 358 325 318 252 293 301 306 271 266 242 255 291 294 232 244
109 106 82 14 340 317 311 19 40 26 176 54 51 253 248 126 85 124 94 30 21 35 186 29 108 28 279 260 360 129 273 89 97 237 298 53 337 36 87 126 95 37 159 145 92 80 33 313 94 41 32 51 98 358 52 115 129 316 240 163 184 151 307 333 326 26 18 348 336 55 18 306 289 286 249 276 342 289 287 276 267 261 272 265 261 257 276 272
87 86 56 17 5 353 297 49 321 146 75 97 191 177 172 135 110 110 93 78 61 268 349 294 157 318 167 328 4 203 106 46 259 255 356 129 185 122 91 18 68 167 227 99 106 129 157 347 85 99 81 56 62 146 251 172 186 88 263 152 148 147 116 49 358 60 32 163 336 45 129 262 327 298 244 267 312 289 312 300 270 278 267 258 242 251 263 258
59 61 38 17 0 337 57 224 198 130 73 258 207 130 193 126 221 98 56 3 55 229 131 243 81 260 84 291 337 24 85 263 337 7 26 339 64 339 101 304 32 32 128 187 54 2 51 354 57 42 60 37 9 354 204 135 102 249 142 132 124 109 101 170 88 101 194 257 282 40 96 170 307 287 262 281 276 278 317 297 289 282 281 261 247 250 256 263
31 51 46 27 40 36 195 134 119 145 184 192 83 114 153 173 103 49 77 98 229 20 105 325 175 1 83 320 48 107 190 330 43 305 143 299 65 357 84 185 135 144 309 54 320 268 91 349 56 26 62 79 221 214 285 200 181 215 185 139 101 123 159 114 85 103 224 323 282 333 339 5 261 264 323 356 194 276 268 264 270 276 285 290 276 250 240 236
19 37 51 15 77 86 89 123 129 147 84 103 89 104 111 72 89 103 119 116 249 87 349 67 296 36 334 355 32 14 358 4 133 278 323 323 48 170 69 204 131 126 51 71 189 190 346 107 186 120 128 238 241 271 230 221 67 271 153 71 74 77 80 89 95 81 343 57 282 241 315 205 282 282 312 349 254 264 244 234 239 239 235 237 198 201 194 183
59 22 37 1 81 49 5 46 56 124 78 76 67 124 62 59 32 38 13 249 117 169 348 250 74 248 42 69 338 2 57 333 76 313 28 105 339 35 35 136 118 70 42 18 71 166 258 325 154 90 189 202 171 243 199 63 22 164 89 69 15 37 41 21 68 86 57 10 258 238 326 151 300 252 200 148 219 201 220 281 265 262 258 248 240 198 187 163
73 47 24 36 136 196 87 4 346 101 84 68 90 59 78 38 112 106 155 229 53 263 332 26 255 6 51 100 110 338 68 333 339 9 188 4 10 40 60 64 63 52 63 24 40 341 16 6 60 262 85 131 128 356 298 117 48 108 98 120 62 333 11 38 342 30 97 278 258 259 249 212 174 291 269 235 271 204 169 194 197 213 210 217 217 223 204 180
91 66 52 69 134 32 130 195 196 95 77 105 75 63 68 262 6 138 208 329 151 259 128 230 344 112 70 2 78 344 49 348 4 40 52 347 58 43 11 148 203 59 339 342 162 356 321 214 239 331 238 160 261 69 319 35 8 60 55 35 86 272 33 284 14 301 210 202 256 337 263 15 240 223 226 236 230 240 219 185 190 194 206 215 224 212 204 191
106 99 69 44 14 56 17 225 65 108 67 54 73 52 64 95 197 267 85 333 217 115 253 81 169 100 186 73 13 314 273 111 325 73 163 306 99 326 234 208 200 159 215 264 72 25 284 355 352 286 54 51 140 141 268 7 350 74 181 134 77 28 36 265 278 240 297 303 260 309 276 256 252 282 233 226 224 212 204 214 195 180 190 197 201 207 199 202
87 57 64 6 79 80 123 73 109 99 70 40 75 45 53 86 243 192 116 229 219 340 34 109 91 51 37 155 242 303 81 266 58 308 71 262 44 275 315 318 136 44 77 165 189 187 329 337 262 138 217 53 38 140 182 230 160 214 146 121 196 137 161 238 234 244 214 216 273 282 75 234 109 218 227 228 269 282 242 239 219 206 192 186 194 190 196 202
95 77 102 51 38 17 19 26 67 87 79 62 53 89 140 236 218 178 228 226 267 339 78 319 80 77 9 18 304 291 180 52 45 11 14 94 246 163 197 228 269 113 128 109 263 76 203 214 267 278 233 115 137 262 126 87 67 242 169 91 78 238 128 192 208 165 278 341 343 226 214 184 181 261 286 275 268 293 283 189 143 190 202 176 164 182 194 206
71 352 66 21 49 307 3 2 68 65 91 59 75 75 175 190 29 166 213 157 111 140 162 48 82 61 302 319 316 88 289 130 318 79 322 154 200 168 216 212 181 192 141 160 201 168 11 285 356 311 33 137 235 207 320 174 165 231 80 236 214 117 99 93 58 39 118 49 254 182 316 297 298 309 294 2 94 234 207 209 197 196 198 178 194 203 202 207
72 359 44 337 1 302 301 32 62 82 68 92 94 224 209 273 208 160 170 137 199 138 99 118 246 136 204 211 232 322 258 57 295 99 270 241 309 196 230 268 164 54 177 134 268 180 154 255 329 69 351 312 241 159 316 262 208 57 134 239 262 163 121 130 244 336 59 137 263 40 227 298 28 265 324 277 211 233 231 224 219 222 202 198 213 207 202 205
101 71 117 15 266 322 336 321 67 54 84 86 156 233 196 105 229 151 199 101 83 41 108 105 254 121 245 131 248 186 292 124 276 57 221 179 251 178 108 152 20 95 219 271 131 292 115 318 310 275 181 268 359 290 329 238 210 149 199 315 154 211 132 331 93 318 299 283 283 309 290 260 189 250 354 240 218 227 227 224 226 230 219 217 217 220 217 218
69 85 113 272 314 329 335 62 71 79 71 81 215 91 232 235 224 171 212 186 135 123 124 224 131 278 135 165 200 327 195 183 226 167 109 252 119 174 183 151 208 115 8 219 104 222 35 172 292 299 138 311 346 89 256 272 10 114 353 9 318 120 190 111 202 179 116 276 41 288 25 252 208 221 197 214 208 214 210 206 220 216 210 206 208 204 201 203
114 63 316 285 297 28 68 72 62 55 80 168 222 211 170 179 226 257 269 193 230 104 220 137 221 113 86 197 148 161 269 126 155 229 114 269 216 308 188 13 154 111 141 342 120 89 103 114 263 286 284 332 258 186 216 162 162 30 118 300 332 289 218 113 356 158 192 184 185 231 322 274 259 212 182 217 211 211 198 205 213 214 212 208 202 195 197 197
42 102 253 283 317 297 44 46 71 142 134 289 106 158 282 192 174 296 290 333 115 312 164 163 159 155 189 111 273 179 119 137 155 156 198 276 170 271 326 162 250 136 182 56 72 284 91 92 204 316 26 237 226 263 205 175 155 175 163 198 179 124 136 156 273 26 88 117 238 134 256 270 266 195 214 226 243 229 219 206 211 211 206 202 204 205 193 193
112 174 253 323 315 56 81 92 8 80 109 152 198 166 145 136 70 316 358 330 77 140 10 107 44 122 131 132 167 165 132 168 191 70 252 179 248 134 219 110 156 254 132 183 193 243 151 146 96 234 200 210 262 296 230 116 135 184 177 258 151 137 105 106 206 269 31 250 109 160 53 270 249 215 230 251 253 241 222 210 225 213 206 204 206 202 202 195
80 185 255 333 315 88 72 57 308 37 84 228 309 36 1 52 117 224 137 279 86 91 15 45 192 111 240 139 191 138 170 182 161 206 198 201 247 208 163 168 222 114 113 347 44 264 99 103 50 288 303 304 332 286 36 53 158 355 284 251 123 194 185 178 178 180 144 117 135 344 244 259 287 258 261 255 256 251 242 196 211 212 208 209 202 199 197 198
128 140 95 327 31 81 104 170 190 203 336 313 68 145 294 155 131 135 224 255 151 188 173 180 348 298 152 104 117 173 202 150 231 154 283 178 224 80 338 356 191 188 128 209 136 234 148 276 124 341 355 338 340 355 353 316 79 219 223 221 201 125 77 170 101 73 297 213 173 135 235 277 272 332 293 318 350 327 235 241 201 202 221 210 202 201 196 188
106 353 55 311 359 74 185 191 134 140 202 145 137 126 119 20 211 182 160 203 165 168 104 239 200 141 66 105 89 84 3 146 135 262 104 192 207 48 342 185 319 188 245 267 246 319 88 209 120 166 208 258 277 308 267 268 228 224 226 221 218 180 153 123 245 140 209 279 134 189 246 253 275 325 331 320 330 312 273 244 249 223 209 201 201 198 191 183
165 144 304 353 7 44 71 74 113 135 135 146 99 220 117 116 358 297 138 8 182 51 32 126 10 86 90 91 77 120 180 348 65 242 158 257 266 332 228 334 137 170 238 191 319 52 163 39 161 167 164 208 208 213 253 120 58 202 241 184 221 195 199 105 100 109 208 208 195 234 216 289 298 274 288 286 274 254 259 244 223 226 236 237 217 195 190 190
157 125 163 183 352 10 179 19 115 111 178 172 155 166 178 162 181 7 183 96 232 143 50 59 185 138 228 107 193 150 247 110 12 103 215 185 245 234 297 176 334 250 221 192 204 87 64 282 249 184 227 226 183 207 209 185 191 231 178 247 203 177 180 161 170 223 167 97 271 223 217 248 264 273 236 242 249 252 253 250 250 250 228 206 204 202 200 200
158 251 122 201 134 211 159 268 163 144 16 164 183 127 172 135 171 157 344 348 343 277 123 318 167 247 176 177 149 158 158 127 93 213 71 300 95 328 49 357 107 334 17 15 338 140 145 182 263 134 265 240 226 234 202 201 220 217 208 204 187 198 153 188 224 215 150 188 241 247 179 213 257 256 259 225 220 220 222 223 220 220 210 186 182 196 202 203
117 137 145 347 205 255 183 192 152 152 147 171 82 147 173 174 193 206 159 122 22 260 178 219 236 216 200 191 148 151 169 123 268 226 181 157 186 127 111 349 257 15 89 42 339 194 111 252 205 174 262 297 290 269 264 208 278 282 240 228 212 168 202 205 223 216 194 232 242 263 261 254 259 266 259 248 206 227 239 247 233 203 212 203 202 207 205 203
204 136 246 10 85 104 77 103 129 127 170 222 156 237 168 181 192 212 328 137 168 264 224 222 253 212 186 188 163 151 205 182 164 180 215 126 106 192 216 192 149 347 39 174 165 286 150 272 145 154 12 286 307 338 52 132 193 270 262 252 216 218 240 236 267 262 251 274 272 267 274 276 271 253 268 264 199 228 266 260 228 226 216 207 207 211 211 208
195 147 150 131 133 259 72 83 129 153 155 245 183 236 135 202 202 175 202 177 152 174 170 210 200 115 136 176 222 248 223 182 130 82 177 163 176 210 158 261 134 144 148 141 181 202 113 252 47 81 320 297 321 30 297 2 286 248 276 257 218 199 230 212 210 213 177 229 239 259 272 260 264 279 202 251 220 208 227 234 237 236 223 211 211 216 214 213
72 29 86 110 120 228 138 69 73 100 218 211 172 204 185 214 184 153 204 202 195 186 193 191 150 124 81 159 221 224 198 175 195 255 175 151 102 91 52 162 152 150 172 169 203 139 184 143 164 151 219 261 267 87 331 320 332 291 260 242 216 212 213 290 272 221 217 210 225 228 242 244 254 305 295 269 210 229 232 235 238 247 232 210 214 217 217 216